Regional Weather Roundup
Issued by NWS San Diego, CA

Home | Current Version | Previous Version | Text Only | Print | Product List | Glossary On
Versions: 1 2 3 4 5 6 7 8 9 10 11 12 13 14 15 16 17 18 19 20 21 22 23 24 25 26 27 28 29 30 31 32 33 34 35 36 37 38 39 40 41 42 43 44 45 46 47 48 49 50
000
ASUS46 KSGX 280111
RWRSGX

SAN DIEGO HOURLY WEATHER ROUNDUP
NATIONAL WEATHER SERVICE SAN DIEGO CA
600 PM PDT WED JUL 27 2016

NOTE: "FAIR" INDICATES FEW OR NO CLOUDS BELOW 12,000 FEET WITH NO
SIGNIFICANT WEATHER AND/OR OBSTRUCTIONS TO VISIBILITY.

CAZ042-043-060-061-PZZ750-775-280200-

GREATER SAN DIEGO AREA

CITY           SKY/WX    TMP DP  RH WIND       PRES   REMARKS
LINDBERGH FLD  MOSUNNY   77  65  66 NW7       29.90S
POINT LOMA       N/A     78  65  64 W12         N/A
NATIONAL CITY    N/A     79  70  74 SW6       29.90S
CHULA VISTA      N/A     78  70  75 W3        29.82S
IMPERIAL BEACH MOSUNNY   77  67  71 W8        29.89F
BROWN FIELD    MOSUNNY   80  62  54 W8        29.90S
MIRAMAR MCAS   MOSUNNY   85  54  34 NW8       29.89F
MONTGOMERY FLD MOSUNNY   82  62  50 W8        29.89F

$$

NORTH SAN DIEGO COUNTY

CITY           SKY/WX    TMP DP  RH WIND       PRES   REMARKS
CAMP PENDLETON MOSUNNY   79  65  62 S12       29.86F
OCEANSIDE AP   SUNNY     77  65  66 W9        29.87F
OCEANSIDE HBR    N/A     75  70  83 SW2       29.90F
VISTA            N/A     82  64  53 SW2       29.85F
CARLSBAD       SUNNY     76  66  71 W6        29.88F
DEL MAR          N/A     77  69  75 W1        29.91F
LA JOLLA SCRIP   N/A     74  70  86 SW3       29.88F
FALLBROOK        N/A     83  63  50 S5        29.86F
ESCONDIDO        N/A     88  55  32 CALM      29.89S
SAN MARCOS       N/A     84  61  46 CALM      29.90F
POWAY            N/A     87  54  31 CALM      29.88S

$$

EAST SAN DIEGO COUNTY

CITY           SKY/WX    TMP DP  RH WIND       PRES   REMARKS
RAMONA         MOSUNNY   89  51  27 W9        29.92F
SANTEE LAKES     N/A     87  55  33 W3        29.85S
LA MESA          N/A     84  60  43 CALM      29.81S
JAMUL            N/A     85  63  48 CALM      29.86S
DESCANSO N       N/A     83  49  30 CALM      29.73S
MT. LAGUNA OBS   N/A     77  47  34 W6        29.76F
CAMPO            N/A     89  54  30 NW12      29.93F

$$

ORANGE COUNTY AND THE LOS ANGELES BASIN

CITY           SKY/WX    TMP DP  RH WIND       PRES   REMARKS
JOHN WAYNE AP  MOSUNNY   79  58  48 SW9       29.87S
LAGUNA BEACH     N/A     81  70  69 S8        29.82F
LAKE FOREST FR   N/A     92  48  21 W2        29.74F
HUNTINGTON BCH   N/A     76  69  79 NW9       29.88F
LOS ALAMITOS   MOSUNNY   85  63  46 S9        29.85F
FULLERTON      SUNNY     90  49  24 S7        29.84F
LONG BEACH     SUNNY     85  56  37 W10       29.85F
L.A. AP        MOSUNNY   75  66  73 W14       29.87F
L.A. DOWNTOWN  SUNNY     80  60  50 VRB3      29.86F

$$

THE INLAND EMPIRE

CITY           SKY/WX    TMP DP  RH WIND       PRES   REMARKS
CORONA         SUNNY     93  46  19 NW13      29.85S
CHINO          MOSUNNY   94  45  18 SW15      29.86F
ONTARIO        MOSUNNY   93  49  22 W13G21    29.87S
SAN BERNARDINO MOSUNNY   97  52  21 SW13      29.88S
RIVERSIDE AP   SUNNY     93  42  17 W14G20    29.87S
MORENO VALLEY    N/A     96  57  27 NW8       28.04S HX  95
MARCH ARB      SUNNY     94  49  21 NW22      29.89F
HORSETHIEF CYN   N/A     98  42  14 E5        29.83F
PERRIS           N/A     93  50  23 NW10      29.88F
HEMET EAST       N/A     95  50  21 SW6       29.72S
FRENCH VALLEY  FAIR      90  57  33 S14       29.90S
TEMECULA         N/A     91  58  33 SW5       29.80F

$$

SAN BERNARDINO AND RIVERSIDE COUNTY MOUNTAINS

CITY           SKY/WX    TMP DP  RH WIND       PRES   REMARKS
BIG BEAR AP    MOSUNNY   77  46  33 W9        30.29S
PINE COVE        N/A     79  50  35 NW1       29.82F

$$

SOUTHERN DESERT INCLUDING THE COACHELLA VALLEY

CITY           SKY/WX    TMP DP  RH WIND       PRES   REMARKS
PALM SPRINGS   FAIR     113  49  12 NW16G22   29.69F HX 109
THOUSAND PALMS   N/A    112  50  12 W10       29.65F HX 109
PALM DESERT      N/A    113  60  18 CALM      29.43S HX 114
THERMAL        SUNNY    112  54  15 SE6       29.62F HX 110
BLYTHE         MOSUNNY  114  56  15 W13G23    29.67S HX 113
IMPERIAL AP    SUNNY    115  59  16 SW6       29.63F HX 116
EL CENTRO NAS  MOSUNNY  113  52  13 VRB6      29.65F HX 110
YUMA AZ        PTSUNNY  110  59  19 S10       29.67F HX 111
MEXICALI       MOSUNNY  111  55  16 SE7       29.66F HX 110

$$

UPPER DESERT

CITY           SKY/WX    TMP DP  RH WIND       PRES   REMARKS
VICTORVILLE AP MOSUNNY  102  45  14 W17G23    29.92S HX  98
HESPERIA         N/A     93  54  26 W8        29.84S
PALMDALE       SUNNY     98  47  17 SW25      29.92S
LANCASTER      MOSUNNY   99  45  15 SW26      29.91S HX  95
EDWARDS AFB    MOSUNNY  102  43  13 SW26G32   29.86S HX  98
DAGGETT        MOSUNNY  109  45  11 SW15G21   29.79F HX 104
29 PALMS N     MOSUNNY  109  44  11 SW13G21   29.86F HX 104
NEEDLES        PTSUNNY  117  51  11 W9        29.69F HX 113

$$

REGIONAL REPORTS

CITY           SKY/WX    TMP DP  RH WIND       PRES   REMARKS
SANTA BARBARA  SUNNY     73  62  68 W9        29.87F
SANDBERG       SUNNY     92  42  17 SW6       30.13F
LAS VEGAS NV   FAIR     112  39   8 S7        29.75F HX 105
PHOENIX AZ     MOSUNNY  112  54  15 W16       29.68F HX 110
TIJUANA        MOSUNNY   79  57  47 W13       29.92S
ENSENADA NW      N/A     73  32  22 W9        29.86F

$$

OFFSHORE ISLANDS

CITY           SKY/WX    TMP DP  RH WIND       PRES   REMARKS
CATALINA ARPT  SUNNY     84  17   8 W10       29.95F
SAN CLEMENTE I MOSUNNY   69  62  78 W12       29.91F
SAN NICOLAS IS SUNNY     87  61  41 VRB5      29.89F

$$

MARINE AND OFFSHORE BUOY REPORTS

STATION/POSITION SKY/WX   TEMP    WIND        PRES    SWELL
                          AIR SEA DIR/SP/G            HT/PER/DIR
                          (F)     (DEG/KT/KT) (MB)    (FT/S/D)
TANNER BANKS               62 65  290/ 10/ 14 1012.4F   5/300/10
S CLEMENTE BASIN           67 71  280/ 10/ 12 1011.8F   3/210/ 9
SAN NICOLAS IS.               64                N/A     3/310/11
SO. S. ROSA ISLA           62 67  300/ 14/ 16 1012.2F   5/320/10
W. S. BARBARA CH           60 64  290/ 16/ 17 1012.2F   3/290/10
M. S. BARBARA CH                  260/ 12/ 14 1012.5F
S. MONICA BASIN            69 73  270/ 10/ 10 1011.9F
S PEDRO CHANNEL               73                N/A     2/180/13
OCEANSIDE OFFSHR              77                N/A     2/210/11
TORREY PINES OTR              76                N/A     2/210/13
LA JOLLA 1                 74 72                N/A
SAN DIEGO BAY                 79                N/A
POINT LOMA SOUTH              73                N/A     2/180/13

$$




USA.gov is the U.S. government's official web portal to all federal, state and local government web resources and services.